Regional Weather Roundup
Issued by NWS

Home | Current Version | Previous Version | Graphics & Text | Print | Product List | Glossary On
Versions: 1 2 3 4 5 6 7 8 9 10 11 12 13 14 15 16 17 18 19 20 21 22 23 24 25 26 27 28 29 30 31 32 33 34 35 36 37 38 39 40 41 42 43 44 45 46 47 48 49 50
000
ASUS43 KFSD 161002
RWRSD

WEATHER ROUNDUP FOR SOUTH DAKOTA
NATIONAL WEATHER SERVICE SIOUX FALLS SD
500 AM CDT TUE SEP 16 2014

NOTE: "FAIR" INDICATES FEW OR NO CLOUDS BELOW 12,000 FEET WITH NO
SIGNIFICANT WEATHER AND/OR OBSTRUCTIONS TO VISIBILITY.


SDZ001>005-009-010-012>017-161100-
NORTHWEST AND NORTH CENTRAL SOUTH DAKOTA

CITY           SKY/WX    TMP DP  RH WIND       PRES   REMARKS
FAITH            N/A     43  38  82 S13       30.03F
MOBRIDGE       CLEAR     48  39  71 SE10      30.05F
$$

SDZ012>016-024>037-041>051-057-063-072>074-161100-
SOUTHWEST AND SOUTH CENTRAL SOUTH DAKOTA

CITY           SKY/WX    TMP DP  RH WIND       PRES   REMARKS
RAPID CTY ARPT CLEAR     43  40  89 NE3       30.04F
PIERRE         CLEAR     46  40  79 SE9       30.07F
CUSTER         CLEAR     48  38  68 NW6       30.14F
ELLSWORTH AFB  CLEAR     48  42  79 VRB1      30.04F
PHILIP         CLEAR     43  39  86 E5        30.04F
PINE RIDGE     CLEAR     51  47  86 SW9       30.07F
WINNER         FAIR      52  41  66 S21G28    30.10F
$$

SDZ004>011-016>023-039-040-161100-
NORTHEAST SOUTH DAKOTA

CITY           SKY/WX    TMP DP  RH WIND       PRES   REMARKS
ABERDEEN       CLEAR     33  33 100 S3        30.15F
WATERTOWN      CLEAR     36  35  96 S3        30.18S
SISSETON         N/A     47  39  74 SW8       30.13F
$$

SDZ017-020-022-023-036>040-048>070-161100-
SOUTHEAST SOUTH DAKOTA

CITY           SKY/WX    TMP DP  RH WIND       PRES   REMARKS
SIOUX FALLS    CLEAR     42  39  89 CALM      30.21S
HURON          CLEAR     41  36  82 SE5       30.16F
CHAMBERLAIN    CLEAR     43  40  89 SE8       30.12F
MITCHELL       CLEAR     44  40  85 S7        30.19F
YANKTON        CLEAR     43  39  87 S3        30.21F
$$

ABBREVIATIONS USED IN REMARKS
   TC - TEMPERATURE IN CELSIUS
  WCI - WIND CHILL INDEX
   HX - HEAT INDEX
  VSB - VISIBILITY



USA.gov is the U.S. government's official web portal to all federal, state and local government web resources and services.